Wind_Speed
44 45 45 46 46 45 44 42 40 38 38 38 39 39 38 37 35 33 32 31 29 28 27 27 26 24 23 22 23 23 24 24 25 26 27 28 28 29
43 45 46 47 46 46 45 44 43 41 39 40 41 40 40 39 38 36 33 32 30 29 29 28 27 26 25 24 25 25 25 26 27 27 28 29 29 28
40 43 45 46 47 47 47 45 44 44 42 42 42 41 40 40 39 38 36 34 32 31 30 29 28 27 27 26 26 25 26 27 27 28 29 29 28 27
36 39 42 43 45 46 45 45 45 45 43 43 43 42 41 41 41 41 38 37 35 33 32 31 30 29 28 27 27 26 26 26 27 27 27 26 26 26
30 34 38 40 42 43 44 43 43 43 44 43 42 42 41 40 41 40 38 36 35 34 33 32 30 29 28 28 27 27 27 27 27 26 26 25 25 25
25 29 33 37 39 41 42 41 42 41 42 42 42 42 41 40 40 38 38 36 35 34 33 33 31 30 29 28 28 28 28 27 26 25 25 25 24 23
21 24 27 30 34 38 39 40 40 40 40 40 40 40 39 40 39 38 37 36 35 34 34 33 32 30 29 29 29 28 27 26 26 25 24 23 21 19
18 20 22 24 28 32 35 37 37 36 37 38 38 38 37 36 35 35 35 36 35 34 34 33 32 30 29 28 27 26 26 25 25 23 21 20 18 17
17 18 20 22 23 26 28 31 32 32 32 33 35 35 35 34 34 33 33 34 34 34 33 32 31 29 28 27 26 25 25 24 23 21 19 17 16 15
16 17 18 20 21 22 24 26 28 28 28 29 30 31 32 32 32 33 33 33 33 32 31 29 28 27 26 25 25 24 23 22 20 18 17 16 15 14
13 15 17 17 18 19 21 23 25 26 26 26 28 29 30 30 30 31 31 32 31 30 29 28 27 26 25 24 24 23 21 19 18 17 16 15 14 13
10 12 14 16 17 17 18 20 21 23 24 25 25 25 26 27 27 27 27 27 27 27 26 26 25 24 24 24 22 21 20 18 18 16 15 14 13 12
7 10 12 14 15 16 17 18 19 20 22 22 24 25 25 25 25 26 26 26 25 25 25 25 24 23 23 22 20 19 18 17 16 16 14 13 12 11
4 7 10 12 13 14 14 15 16 18 19 19 20 22 23 24 24 24 24 24 23 23 22 22 22 21 21 20 19 18 17 16 15 15 14 13 12 12
4 6 8 10 12 12 13 13 13 14 16 15 17 18 19 20 21 21 22 21 21 21 20 20 20 19 19 18 17 17 16 15 14 14 13 13 12 12
7 6 8 9 10 11 11 10 11 12 14 14 15 16 17 18 19 19 20 21 21 21 20 19 18 17 17 16 16 15 14 14 13 13 12 12 12 12
9 8 8 8 9 10 10 9 9 11 12 14 15 15 15 16 17 17 18 18 18 18 17 17 16 15 15 15 14 13 13 12 12 12 12 12 12 12
10 9 8 8 9 9 9 9 9 10 11 12 13 15 15 14 15 16 16 16 16 16 15 14 14 14 14 13 13 13 12 12 12 12 12 12 12 12
9 8 7 7 7 8 8 9 9 9 10 11 12 12 13 13 14 14 14 15 15 15 14 14 13 13 13 12 12 12 12 12 12 12 12 12 12 12
8 7 7 7 7 7 7 8 8 9 10 11 11 11 12 12 13 13 13 13 13 13 13 13 13 13 12 12 12 12 12 12 12 12 12 12 12 13
6 6 6 6 6 6 7 7 8 9 10 10 10 10 11 11 11 11 11 11 11 12 12 12 12 12 12 12 12 12 12 12 12 12 12 12 13 14
4 4 4 4 5 6 6 7 8 9 9 9 9 9 10 10 10 10 11 11 11 11 11 11 11 11 11 11 11 11 11 12 12 12 13 13 14 15
2 0 1 2 4 5 6 7 7 8 9 8 9 9 9 9 10 10 11 11 11 11 10 10 10 11 11 11 11 11 12 12 12 13 14 14 15 16
Wind_Direction
236 235 233 232 231 231 231 230 231 232 234 234 233 235 235 236 238 239 242 244 244 245 247 250 253 257 259 266 271 274 277 281 283 286 288 290 292 294
236 235 233 232 231 232 231 230 230 230 230 232 234 234 233 235 234 236 238 240 242 244 246 249 253 256 260 265 271 274 279 282 285 287 289 291 293 293
236 235 234 233 232 232 231 230 229 229 229 231 232 232 233 232 233 234 235 236 240 243 245 247 251 256 260 266 270 275 280 283 286 288 289 291 291 292
237 235 234 233 232 232 231 229 229 230 230 231 231 232 231 232 232 233 234 234 238 241 243 246 249 255 260 266 271 275 279 282 286 288 289 290 290 292
239 237 235 233 231 229 229 229 229 229 229 229 230 230 231 232 232 233 232 233 236 237 241 244 250 256 262 267 270 274 279 283 286 287 288 289 290 292
242 239 237 234 231 229 229 228 228 229 229 229 230 230 231 230 230 231 231 232 234 236 241 245 251 256 261 264 267 272 278 282 282 284 286 288 289 289
243 239 236 234 231 229 230 229 229 230 230 229 229 228 229 228 228 231 232 233 237 239 242 245 250 255 257 261 266 272 275 278 280 283 285 287 287 289
246 240 235 232 230 229 231 230 228 229 229 228 228 227 226 226 227 229 232 233 236 239 242 246 249 252 254 259 266 270 273 275 278 281 283 283 284 286
245 241 235 232 231 231 230 229 227 226 225 226 227 228 227 227 228 230 231 232 235 239 242 245 246 250 254 259 264 267 269 272 274 275 277 278 280 281
243 237 234 231 226 226 228 227 227 226 225 224 223 223 224 225 228 230 231 233 235 237 239 242 245 248 253 257 260 263 267 268 268 269 272 275 275 276
241 231 228 228 225 223 221 220 221 223 224 223 222 224 225 225 228 229 231 232 233 234 236 240 244 247 250 253 256 260 261 262 263 266 269 270 270 271
236 225 220 218 218 217 217 216 217 219 218 218 220 220 222 223 225 225 227 229 230 233 235 238 240 244 248 250 253 254 255 258 259 263 263 262 263 264
227 215 211 209 208 210 214 215 216 216 215 212 212 213 214 217 219 221 224 225 227 230 232 235 238 242 245 248 248 249 252 254 255 256 255 255 256 256
198 196 196 197 199 201 205 208 213 216 215 213 212 210 210 211 214 216 220 223 227 230 232 235 237 240 242 242 244 246 248 249 250 250 248 248 249 251
118 162 175 179 184 189 193 199 203 207 208 208 209 208 209 208 210 213 216 219 224 227 229 233 235 238 238 237 238 241 243 243 243 243 241 242 245 246
87 124 150 168 175 179 185 191 195 198 201 203 202 203 204 204 207 209 209 214 220 224 227 229 230 232 232 233 235 236 236 236 237 237 236 238 242 246
78 99 120 143 160 168 173 177 182 186 190 191 194 195 196 198 202 203 207 213 216 218 220 221 222 222 224 226 227 227 227 229 231 235 236 238 244 250
76 94 109 124 140 151 158 161 163 168 177 183 187 190 190 193 198 200 203 205 205 207 209 211 212 214 217 218 220 222 225 227 231 235 238 242 249 255
73 89 105 121 135 148 150 153 157 159 162 168 173 179 185 189 192 194 195 195 197 201 204 206 207 210 213 216 218 221 223 226 231 237 243 248 256 263
66 81 98 117 129 141 151 154 159 163 163 163 166 172 178 182 185 188 190 194 198 201 203 203 205 209 212 216 219 222 224 229 234 241 248 255 262 268
62 80 96 114 127 138 148 155 158 159 162 164 167 172 174 177 180 183 187 190 194 196 198 201 205 210 214 217 220 224 229 234 239 246 253 260 266 272
55 82 102 114 130 144 155 160 162 162 163 167 173 178 179 181 184 185 186 188 190 193 197 201 205 211 217 222 226 230 236 241 246 253 260 267 273 277
339 19 162 164 165 166 167 167 170 173 174 174 178 181 183 186 187 187 188 191 196 200 205 210 215 220 224 228 233 238 243 248 254 260 267 273 277 281
Height
5769 5774 5779 5784 5790 5795 5800 5806 5811 5815 5820 5824 5829 5833 5837 5840 5844 5847 5851 5854 5856 5859 5861 5863 5864 5866 5867 5868 5868 5868 5868 5868 5868 5867 5866 5865 5863 5862
5759 5764 5769 5774 5779 5784 5790 5795 5800 5805 5810 5815 5819 5824 5828 5832 5836 5840 5843 5846 5849 5852 5854 5857 5858 5860 5861 5862 5862 5863 5863 5862 5862 5861 5859 5858 5857 5855
5749 5753 5758 5763 5769 5774 5779 5785 5790 5795 5801 5806 5810 5814 5819 5824 5828 5832 5836 5839 5842 5845 5847 5850 5851 5853 5854 5855 5856 5856 5856 5856 5855 5854 5853 5852 5850 5849
5740 5744 5748 5753 5758 5764 5769 5775 5780 5785 5791 5796 5800 5805 5810 5815 5819 5823 5827 5831 5834 5838 5840 5842 5844 5846 5847 5849 5849 5850 5850 5849 5849 5848 5847 5845 5844 5843
5731 5735 5739 5743 5748 5754 5760 5765 5770 5775 5780 5786 5791 5796 5801 5805 5810 5815 5819 5823 5826 5829 5832 5835 5837 5839 5840 5842 5843 5843 5843 5843 5842 5841 5840 5839 5838 5837
5725 5727 5730 5734 5739 5744 5749 5755 5761 5766 5771 5776 5782 5787 5792 5796 5801 5806 5811 5815 5819 5822 5825 5827 5830 5832 5834 5835 5836 5836 5837 5837 5836 5835 5834 5833 5832 5831
5719 5721 5723 5727 5731 5736 5741 5746 5752 5757 5762 5767 5772 5777 5783 5788 5793 5798 5803 5807 5811 5814 5817 5820 5822 5825 5827 5828 5829 5830 5830 5830 5830 5829 5829 5828 5827 5826
5713 5715 5718 5721 5724 5728 5733 5738 5744 5749 5754 5759 5764 5769 5775 5780 5785 5790 5795 5799 5803 5807 5810 5813 5815 5818 5820 5821 5822 5823 5824 5824 5824 5823 5823 5822 5822 5821
5708 5710 5712 5715 5719 5722 5727 5732 5737 5741 5746 5752 5757 5762 5767 5773 5778 5783 5787 5792 5796 5799 5802 5805 5808 5810 5812 5814 5816 5817 5817 5818 5818 5818 5818 5818 5817 5817
5703 5705 5708 5711 5714 5718 5722 5726 5730 5735 5740 5745 5750 5755 5761 5765 5770 5775 5779 5784 5788 5792 5795 5798 5801 5804 5806 5807 5809 5810 5811 5812 5812 5813 5813 5813 5813 5813
5698 5700 5704 5707 5710 5714 5718 5722 5725 5730 5734 5739 5744 5749 5754 5759 5763 5768 5772 5777 5780 5784 5788 5791 5794 5797 5799 5801 5803 5804 5805 5806 5807 5808 5808 5808 5809 5809
5695 5697 5700 5703 5707 5710 5714 5718 5721 5725 5730 5734 5739 5743 5747 5752 5757 5762 5767 5770 5774 5778 5781 5785 5788 5790 5793 5795 5796 5798 5799 5801 5802 5803 5804 5804 5804 5805
5693 5695 5698 5701 5704 5708 5711 5715 5718 5722 5726 5730 5734 5738 5743 5747 5752 5756 5760 5765 5769 5772 5776 5779 5782 5785 5787 5789 5791 5793 5795 5796 5797 5798 5799 5800 5800 5801
5692 5694 5697 5700 5703 5706 5710 5713 5716 5719 5723 5727 5731 5734 5738 5743 5747 5751 5755 5759 5763 5767 5770 5773 5776 5779 5782 5784 5786 5788 5790 5791 5792 5794 5795 5796 5797 5797
5694 5695 5697 5700 5703 5706 5709 5712 5714 5718 5721 5725 5728 5731 5735 5739 5743 5747 5751 5755 5758 5762 5765 5769 5772 5774 5777 5779 5781 5783 5785 5786 5788 5789 5791 5792 5793 5794
5697 5697 5699 5701 5703 5706 5709 5711 5714 5717 5720 5723 5726 5729 5733 5736 5740 5744 5748 5752 5755 5758 5761 5764 5767 5770 5772 5775 5777 5778 5780 5782 5784 5786 5787 5788 5790 5790
5702 5701 5702 5703 5705 5707 5710 5712 5714 5716 5719 5722 5725 5728 5731 5735 5738 5741 5745 5748 5752 5755 5758 5760 5763 5766 5768 5771 5772 5775 5777 5779 5781 5782 5784 5785 5786 5787
5707 5706 5706 5707 5708 5710 5712 5713 5715 5717 5719 5722 5725 5728 5731 5734 5737 5740 5743 5746 5749 5752 5755 5757 5760 5763 5765 5767 5770 5772 5774 5775 5777 5779 5780 5782 5783 5783
5712 5711 5711 5711 5712 5713 5714 5715 5717 5718 5720 5722 5725 5727 5730 5733 5736 5739 5741 5744 5747 5750 5752 5755 5758 5760 5763 5765 5767 5769 5771 5773 5774 5776 5777 5778 5779 5779
5716 5715 5714 5714 5714 5715 5716 5717 5718 5720 5722 5724 5726 5728 5730 5733 5735 5738 5740 5743 5746 5748 5750 5753 5755 5758 5760 5763 5764 5766 5768 5770 5771 5772 5773 5774 5775 5775
5720 5718 5718 5717 5717 5717 5718 5719 5720 5721 5723 5725 5727 5729 5731 5733 5735 5737 5740 5742 5744 5747 5749 5751 5753 5756 5758 5760 5762 5763 5765 5766 5768 5769 5770 5770 5771 5771
5723 5721 5720 5720 5720 5719 5720 5720 5721 5723 5724 5726 5727 5729 5731 5733 5735 5736 5739 5741 5743 5745 5748 5750 5752 5754 5756 5757 5759 5760 5762 5763 5764 5765 5766 5766 5766 5766
5724 5723 5722 5721 5721 5721 5721 5722 5722 5723 5724 5726 5727 5729 5730 5732 5734 5736 5738 5740 5742 5744 5746 5748 5749 5751 5753 5754 5756 5757 5758 5759 5760 5760 5761 5761 5761 5761